Home > Weather > Shantou > Past weeks

Flag for China Past Weather in Shantou, Guangdong, China — Yesterday and Last 2 Weeks

Now
88 °F

Scattered clouds.


Feels Like: 100 °F
Forecast: 80 / 96 °F
Wind: 3 mph from North

Location: Shantou Airport

Current Time: Jul 27, 2016 at 9:59:57 AM

Latest Report: Jul 27, 2016 at 9:00 AM


Visibility: N/A

Pressure: 29.83 "Hg

Humidity: 70%

Dew Point: 77 °F

Location of ShantouLocation

Past Weather in Shantou — Graph

°F

Shantou Temperature Yesterday

Maximum temperature yesterday: 95 °F (at 1:00 PM)
Minimum temperature yesterday: 79 °F (at 4:00 AM)
Average temperature yesterday: 87 °F

High & Low Weather Summary for the Past Weeks

 TemperatureHumidityPressure
High99 °F (Jul 22, 4:00 PM)100% (Jul 13, 4:00 AM)29.92 "Hg (Jul 13, 4:00 AM)
Low77 °F (Jul 20, 5:00 AM)44% (Jul 22, 4:00 PM)29.62 "Hg (Jul 12, 1:00 PM)
Average86 °F80%29.77 "Hg
* Reported Jul 12 8:00 AM — Jul 27 8:00 AM, Shantou, Weather by CustomWeather, © 2016

Note: Actual official high and low records may vary slightly from our data, if they occured in-between our weather recording intervals... More about our weather records

Advertising

Shantou Weather History for the Previous 24 Hours

Scroll right to see more
 ConditionsComfort  
Time TempWeatherWind HumidityBarometerVisibility
8:00 AM
Wed, Jul 27
86 °FScattered clouds.3 mph79%29.83 "Hg4 mi
7:00 AM84 °FFog.No wind89%29.80 "Hg3 mi
6:00 AM81 °FFog.No wind94%29.80 "Hg2 mi
5:00 AM81 °FFog.No wind94%29.80 "Hg3 mi
4:00 AM81 °FClear.1 mph94%29.80 "Hg4 mi
3:00 AM81 °FClear.1 mph94%29.80 "Hg10 mi
2:00 AM81 °FClear.No wind94%29.80 "Hg10 mi
1:00 AM82 °FClear.No wind89%29.80 "Hg10 mi
12:00 AM84 °FClear.3 mph84%29.80 "Hg10 mi
11:00 PM
Tue, Jul 26
84 °FClear.3 mph84%29.83 "Hg10 mi
10:00 PM84 °FPassing clouds.3 mph84%29.83 "HgN/A
9:00 PM86 °FPassing clouds.6 mph75%29.80 "HgN/A
8:00 PM86 °FPassing clouds.6 mph75%29.80 "HgN/A
7:00 PM88 °FClear.10 mph70%29.77 "Hg10 mi
6:00 PM90 °FSunny.10 mph67%29.74 "Hg10 mi
5:00 PM93 °FPassing clouds.10 mph56%29.74 "HgN/A
4:00 PM95 °FScattered clouds.13 mph50%29.74 "HgN/A
3:00 PM95 °FPassing clouds.10 mph50%29.74 "HgN/A
2:00 PM95 °FScattered clouds.8 mph47%29.74 "HgN/A
1:00 PM95 °FScattered clouds.8 mph50%29.77 "HgN/A
12:00 PM93 °FPartly sunny.6 mph53%29.80 "HgN/A
11:00 AM90 °FPartly sunny.3 mph63%29.80 "HgN/A
10:00 AM88 °FPartly sunny.1 mph70%29.83 "HgN/A
9:00 AM86 °FPartly sunny.1 mph79%29.83 "HgN/A
Weather by CustomWeather, © 2016

See weather overviewHow to use our weather pages